Time,TemperatureF,DewpointF,PressureIn,WindDirection,WindDirectionDegrees,WindSpeedMPH,WindSpeedGustMPH,Humidity,HourlyPrecipIn,Conditions,Clouds,dailyrainin,SoftwareType,DateUTC
2013-07-27 00:04:00,61.3,59.9,30.01,NNW,345,0.0,0.0,95,0.00,,SKC,0.00,VWS V12.07,2013-07-27 05:04:00,
2013-07-27 00:10:00,61.0,59.9,30.01,NNW,345,0.0,0.0,96,0.00,,SKC,0.00,VWS V12.07,2013-07-27 05:10:00,
2013-07-27 00:17:00,60.7,59.6,30.01,North,355,0.0,0.0,96,0.00,,SKC,0.00,VWS V12.07,2013-07-27 05:17:00,
2013-07-27 00:24:00,60.4,59.3,30.01,North,11,0.0,2.0,96,0.00,,SKC,0.00,VWS V12.07,2013-07-27 05:24:00,
2013-07-27 00:30:00,60.4,59.5,30.01,NW,314,0.0,2.0,97,0.00,,SKC,0.00,VWS V12.07,2013-07-27 05:30:00,
2013-07-27 00:37:00,60.3,59.2,30.01,North,1,0.0,0.0,96,0.00,,SKC,0.00,VWS V12.07,2013-07-27 05:37:00,
2013-07-27 00:44:00,60.1,59.0,30.01,North,360,0.0,0.0,96,0.00,,SKC,0.00,VWS V12.07,2013-07-27 05:44:00,
2013-07-27 00:50:00,60.0,59.2,30.01,North,349,0.0,0.0,97,0.00,,SKC,0.00,VWS V12.07,2013-07-27 05:50:00,
2013-07-27 00:57:00,59.9,58.8,30.01,NNW,331,1.0,2.0,96,0.00,,SKC,0.00,VWS V12.07,2013-07-27 05:57:00,
2013-07-27 01:04:00,60.0,58.9,30.01,NNW,345,0.0,0.0,96,0.00,,SKC,0.00,VWS V12.07,2013-07-27 06:04:00,
2013-07-27 01:10:00,59.9,58.5,30.01,North,349,0.0,2.0,95,0.00,,SKC,0.00,VWS V12.07,2013-07-27 06:10:00,
2013-07-27 01:17:00,59.8,58.4,30.01,North,356,1.0,3.0,95,0.00,,SKC,0.00,VWS V12.07,2013-07-27 06:17:00,
2013-07-27 01:24:00,59.6,58.2,30.01,North,357,0.0,3.0,95,0.00,,SKC,0.00,VWS V12.07,2013-07-27 06:24:00,
2013-07-27 01:30:00,59.5,58.1,30.00,North,359,0.0,3.0,95,0.00,,SKC,0.00,VWS V12.07,2013-07-27 06:30:00,
2013-07-27 01:37:00,59.3,58.2,30.00,North,357,0.0,0.0,96,0.00,,SKC,0.00,VWS V12.07,2013-07-27 06:37:00,
2013-07-27 01:44:00,59.1,58.0,30.00,North,358,0.0,0.0,96,0.00,,SKC,0.00,VWS V12.07,2013-07-27 06:44:00,
2013-07-27 01:50:00,59.0,57.9,30.00,North,358,0.0,0.0,96,0.00,,SKC,0.00,VWS V12.07,2013-07-27 06:50:00,
2013-07-27 01:57:00,58.9,58.0,30.00,North,357,0.0,0.0,97,0.00,,SKC,0.00,VWS V12.07,2013-07-27 06:57:00,
2013-07-27 02:04:00,58.9,58.0,30.00,North,357,0.0,0.0,97,0.00,,SKC,0.00,VWS V12.07,2013-07-27 07:04:00,
2013-07-27 02:09:00,58.7,57.8,30.00,NNW,327,1.0,1.0,97,0.00,,SKC,0.00,VWS V12.07,2013-07-27 07:09:00,
2013-07-27 02:14:00,58.7,57.8,30.00,WNW,302,1.0,2.0,97,0.00,,SKC,0.00,VWS V12.07,2013-07-27 07:14:00,
2013-07-27 02:22:00,58.8,57.7,30.00,NW,319,0.0,2.0,96,0.00,,SKC,0.00,VWS V12.07,2013-07-27 07:22:00,
2013-07-27 02:28:00,58.8,57.7,30.00,NW,312,0.0,2.0,96,0.00,,SKC,0.00,VWS V12.07,2013-07-27 07:28:00,
2013-07-27 02:33:00,58.6,57.5,30.00,NW,311,0.0,0.0,96,0.00,,SKC,0.00,VWS V12.07,2013-07-27 07:33:00,
2013-07-27 02:39:00,58.4,57.3,30.00,NW,311,0.0,0.0,96,0.00,,SKC,0.00,VWS V12.07,2013-07-27 07:39:00,
2013-07-27 02:46:00,58.4,57.3,30.00,NW,309,1.0,2.0,96,0.00,,SKC,0.00,VWS V12.07,2013-07-27 07:46:00,
2013-07-27 02:52:00,58.7,57.3,30.00,WNW,295,1.0,3.0,95,0.00,,SKC,0.00,VWS V12.07,2013-07-27 07:52:00,
2013-07-27 02:58:00,59.1,57.1,30.00,NW,311,2.0,3.0,93,0.00,,SKC,0.00,VWS V12.07,2013-07-27 07:58:00,
2013-07-27 03:03:00,59.3,57.0,30.00,NNW,330,1.0,4.0,92,0.00,,SKC,0.00,VWS V12.07,2013-07-27 08:03:00,
2013-07-27 03:08:00,59.5,56.9,30.00,NW,314,1.0,4.0,91,0.00,,SKC,0.00,VWS V12.07,2013-07-27 08:08:00,
2013-07-27 03:13:00,59.3,56.7,30.00,NW,323,0.0,4.0,91,0.00,,SKC,0.00,VWS V12.07,2013-07-27 08:13:00,
2013-07-27 03:19:00,59.3,56.7,30.00,NW,316,3.0,4.0,91,0.00,,SKC,0.00,VWS V12.07,2013-07-27 08:19:00,
2013-07-27 03:26:00,59.4,56.8,30.00,WNW,295,1.0,4.0,91,0.00,,SKC,0.00,VWS V12.07,2013-07-27 08:26:00,
2013-07-27 03:33:00,59.2,56.6,30.00,North,9,0.0,2.0,91,0.00,,SKC,0.00,VWS V12.07,2013-07-27 08:33:00,
2013-07-27 03:39:00,59.0,56.4,30.00,NW,309,1.0,4.0,91,0.00,,SKC,0.00,VWS V12.07,2013-07-27 08:39:00,
2013-07-27 03:44:00,59.0,56.4,30.00,NNW,345,0.0,4.0,91,0.00,,SKC,0.00,VWS V12.07,2013-07-27 08:44:00,
2013-07-27 03:52:00,58.7,56.4,30.00,NNW,341,0.0,4.0,92,0.00,,SKC,0.00,VWS V12.07,2013-07-27 08:52:00,
2013-07-27 03:58:00,58.6,56.3,30.00,NW,305,2.0,4.0,92,0.00,,SKC,0.00,VWS V12.07,2013-07-27 08:58:00,
2013-07-27 04:03:00,58.5,56.2,30.00,NW,320,0.0,0.0,92,0.00,,SKC,0.00,VWS V12.07,2013-07-27 09:03:00,
2013-07-27 04:09:00,58.3,56.0,30.00,NW,304,2.0,2.0,92,0.00,,SKC,0.00,VWS V12.07,2013-07-27 09:09:00,
2013-07-27 04:15:00,58.4,56.1,30.00,WNW,291,0.0,3.0,92,0.00,,SKC,0.00,VWS V12.07,2013-07-27 09:15:00,
2013-07-27 04:22:00,58.4,56.1,30.00,NNW,328,0.0,3.0,92,0.00,,SKC,0.00,VWS V12.07,2013-07-27 09:22:00,
2013-07-27 04:29:00,58.2,55.9,30.01,West,269,0.0,3.0,92,0.00,,SKC,0.00,VWS V12.07,2013-07-27 09:29:00,
2013-07-27 04:35:00,58.3,56.0,30.01,NNW,327,2.0,4.0,92,0.00,,SKC,0.00,VWS V12.07,2013-07-27 09:35:00,
2013-07-27 04:41:00,58.5,55.9,30.01,WNW,291,2.0,6.0,91,0.00,,SKC,0.00,VWS V12.07,2013-07-27 09:41:00,
2013-07-27 04:48:00,58.4,55.8,30.01,NW,314,0.0,6.0,91,0.00,,SKC,0.00,VWS V12.07,2013-07-27 09:48:00,
2013-07-27 04:55:00,58.2,55.6,30.01,West,277,1.0,6.0,91,0.00,,SKC,0.00,VWS V12.07,2013-07-27 09:55:00,
2013-07-27 05:02:00,58.0,55.4,30.01,NW,314,0.0,2.0,91,0.00,,SKC,0.00,VWS V12.07,2013-07-27 10:02:00,
2013-07-27 05:07:00,57.9,55.6,30.01,NNW,328,0.0,3.0,92,0.00,,SKC,0.00,VWS V12.07,2013-07-27 10:07:00,
2013-07-27 05:14:00,57.6,55.3,30.01,NNW,342,0.0,3.0,92,0.00,,SKC,0.00,VWS V12.07,2013-07-27 10:14:00,
2013-07-27 05:19:00,57.3,55.3,30.01,NNE,33,0.0,3.0,93,0.00,,SKC,0.00,VWS V12.07,2013-07-27 10:19:00,
2013-07-27 05:27:00,57.2,55.2,30.01,North,358,0.0,3.0,93,0.00,,SKC,0.00,VWS V12.07,2013-07-27 10:27:00,
2013-07-27 05:34:00,57.2,55.2,30.01,NNW,338,1.0,2.0,93,0.00,,SKC,0.00,VWS V12.07,2013-07-27 10:34:00,
2013-07-27 05:39:00,57.1,55.1,30.02,WNW,294,1.0,5.0,93,0.00,,SKC,0.00,VWS V12.07,2013-07-27 10:39:00,
2013-07-27 05:46:00,57.1,55.1,30.02,NNE,15,4.0,5.0,93,0.00,,SKC,0.00,VWS V12.07,2013-07-27 10:46:00,
2013-07-27 05:53:00,57.1,55.1,30.02,NNW,341,0.0,5.0,93,0.00,,SKC,0.00,VWS V12.07,2013-07-27 10:53:00,
2013-07-27 05:59:00,57.1,55.1,30.02,NNW,330,2.0,5.0,93,0.00,,SKC,0.00,VWS V12.07,2013-07-27 10:59:00,
2013-07-27 06:05:00,57.1,55.1,30.03,WNW,299,3.0,4.0,93,0.00,,SKC,0.00,VWS V12.07,2013-07-27 11:05:00,
2013-07-27 06:10:00,57.2,55.2,30.03,NNW,328,2.0,4.0,93,0.00,,SKC,0.00,VWS V12.07,2013-07-27 11:10:00,
2013-07-27 06:16:00,57.1,54.8,30.03,NW,319,1.0,4.0,92,0.00,,SKC,0.00,VWS V12.07,2013-07-27 11:16:00,
2013-07-27 06:23:00,57.2,55.2,30.03,NW,314,2.0,4.0,93,0.00,,SKC,0.00,VWS V12.07,2013-07-27 11:23:00,
2013-07-27 06:30:00,57.1,55.1,30.03,NW,321,2.0,4.0,93,0.00,,SKC,0.00,VWS V12.07,2013-07-27 11:30:00,
2013-07-27 06:37:00,57.1,55.1,30.03,NNW,333,1.0,3.0,93,0.00,,SKC,0.00,VWS V12.07,2013-07-27 11:37:00,
2013-07-27 06:43:00,57.5,55.2,30.03,NNW,340,0.0,4.0,92,0.00,,SKC,0.00,VWS V12.07,2013-07-27 11:43:00,
2013-07-27 06:49:00,58.1,55.5,30.03,NW,319,1.0,4.0,91,0.00,,SKC,0.00,VWS V12.07,2013-07-27 11:49:00,
2013-07-27 06:56:00,58.4,55.8,30.03,NW,319,2.0,6.0,91,0.00,,SKC,0.00,VWS V12.07,2013-07-27 11:56:00,
2013-07-27 07:01:00,58.7,56.1,30.03,NNW,343,0.0,2.0,91,0.00,,SKC,0.00,VWS V12.07,2013-07-27 12:01:00,
2013-07-27 07:08:00,59.1,55.9,30.03,NNE,13,3.0,5.0,89,0.00,,SKC,0.00,VWS V12.07,2013-07-27 12:08:00,
2013-07-27 07:14:00,59.2,56.3,30.03,North,354,7.0,7.0,90,0.00,,SKC,0.00,VWS V12.07,2013-07-27 12:14:00,
2013-07-27 07:20:00,59.5,56.3,30.03,ENE,69,4.0,7.0,89,0.00,,SKC,0.00,VWS V12.07,2013-07-27 12:20:00,
2013-07-27 07:25:00,59.7,56.5,30.03,NE,53,2.0,7.0,89,0.00,,SKC,0.00,VWS V12.07,2013-07-27 12:25:00,
2013-07-27 07:31:00,59.9,56.7,30.03,NE,41,6.0,6.0,89,0.00,,SKC,0.00,VWS V12.07,2013-07-27 12:31:00,
2013-07-27 07:38:00,60.0,56.4,30.03,NNE,23,5.0,8.0,88,0.00,,SKC,0.00,VWS V12.07,2013-07-27 12:38:00,
2013-07-27 07:45:00,60.3,56.7,30.03,NNW,329,2.0,12.0,88,0.00,,SKC,0.00,VWS V12.07,2013-07-27 12:45:00,
2013-07-27 07:51:00,60.6,57.0,30.03,ENE,69,2.0,12.0,88,0.00,,SKC,0.00,VWS V12.07,2013-07-27 12:51:00,
2013-07-27 07:57:00,60.9,56.7,30.03,NE,47,3.0,12.0,86,0.00,,SKC,0.00,VWS V12.07,2013-07-27 12:57:00,
2013-07-27 08:03:00,61.1,56.6,30.03,North,353,2.0,8.0,85,0.00,,SKC,0.00,VWS V12.07,2013-07-27 13:03:00,
2013-07-27 08:08:00,61.4,56.9,30.03,NE,39,1.0,8.0,85,0.00,,SKC,0.00,VWS V12.07,2013-07-27 13:08:00,
2013-07-27 08:14:00,61.8,57.2,30.03,North,356,0.0,8.0,85,0.00,,SKC,0.00,VWS V12.07,2013-07-27 13:14:00,
2013-07-27 08:23:00,62.2,57.3,30.03,NNE,15,7.0,9.0,84,0.00,,SKC,0.00,VWS V12.07,2013-07-27 13:23:00,
2013-07-27 08:28:00,62.3,57.1,30.04,North,353,5.0,9.0,83,0.00,,SKC,0.00,VWS V12.07,2013-07-27 13:28:00,
2013-07-27 08:33:00,62.6,57.4,30.03,WNW,302,2.0,5.0,83,0.00,,SKC,0.00,VWS V12.07,2013-07-27 13:33:00,
2013-07-27 08:38:00,62.9,57.0,30.03,NW,305,4.0,12.0,81,0.00,,SKC,0.00,VWS V12.07,2013-07-27 13:38:00,
2013-07-27 08:44:00,62.8,56.5,30.04,WNW,290,5.0,12.0,80,0.00,,SKC,0.00,VWS V12.07,2013-07-27 13:44:00,
2013-07-27 08:50:00,62.8,56.2,30.03,NNW,330,7.0,12.0,79,0.00,,SKC,0.00,VWS V12.07,2013-07-27 13:50:00,
2013-07-27 08:58:00,63.1,56.5,30.03,NE,48,2.0,12.0,79,0.00,,SKC,0.00,VWS V12.07,2013-07-27 13:58:00,
2013-07-27 09:03:00,63.3,56.0,30.03,NW,321,4.0,9.0,77,0.00,,SKC,0.00,VWS V12.07,2013-07-27 14:03:00,
2013-07-27 09:08:00,63.6,56.3,30.03,North,353,2.0,9.0,77,0.00,,SKC,0.00,VWS V12.07,2013-07-27 14:08:00,
2013-07-27 09:13:00,63.8,56.1,30.04,NE,49,1.0,9.0,76,0.00,,SKC,0.00,VWS V12.07,2013-07-27 14:13:00,
2013-07-27 09:19:00,64.1,56.8,30.04,North,354,4.0,9.0,77,0.00,,SKC,0.00,VWS V12.07,2013-07-27 14:19:00,
2013-07-27 09:25:00,64.6,56.5,30.04,NNW,344,7.0,9.0,75,0.00,,SKC,0.00,VWS V12.07,2013-07-27 14:25:00,
2013-07-27 09:30:00,64.8,57.1,30.04,North,356,4.0,9.0,76,0.00,,SKC,0.00,VWS V12.07,2013-07-27 14:30:00,
2013-07-27 09:36:00,65.0,56.9,30.03,NNE,16,6.0,6.0,75,0.00,,SKC,0.00,VWS V12.07,2013-07-27 14:36:00,
2013-07-27 09:42:00,65.4,58.0,30.03,NW,314,2.0,9.0,77,0.00,,SKC,0.00,VWS V12.07,2013-07-27 14:42:00,
2013-07-27 09:47:00,65.9,57.0,30.04,West,281,7.0,9.0,73,0.00,,SKC,0.00,VWS V12.07,2013-07-27 14:47:00,
2013-07-27 09:54:00,65.8,56.5,30.04,NW,323,4.0,10.0,72,0.00,,SKC,0.00,VWS V12.07,2013-07-27 14:54:00,
2013-07-27 10:00:00,66.2,57.3,30.03,NNW,327,5.0,10.0,73,0.00,,SKC,0.00,VWS V12.07,2013-07-27 15:00:00,
2013-07-27 10:10:00,66.5,57.2,30.03,West,271,2.0,8.0,72,0.00,,SKC,0.00,VWS V12.07,2013-07-27 15:10:00,
2013-07-27 10:17:00,66.9,57.2,30.04,North,354,3.0,11.0,71,0.00,,SKC,0.00,VWS V12.07,2013-07-27 15:17:00,
2013-07-27 10:24:00,67.1,56.6,30.04,NNE,17,4.0,12.0,69,0.00,,SKC,0.00,VWS V12.07,2013-07-27 15:24:00,
2013-07-27 10:30:00,67.2,56.3,30.04,NW,319,4.0,12.0,68,0.00,,SKC,0.00,VWS V12.07,2013-07-27 15:30:00,
2013-07-27 10:37:00,67.7,56.4,30.03,NNE,18,2.0,10.0,67,0.00,,SKC,0.00,VWS V12.07,2013-07-27 15:37:00,
2013-07-27 10:44:00,67.9,55.7,30.03,WSW,242,3.0,12.0,65,0.00,,SKC,0.00,VWS V12.07,2013-07-27 15:44:00,
2013-07-27 10:50:00,68.2,55.6,30.03,NNE,32,4.0,12.0,64,0.00,,SKC,0.00,VWS V12.07,2013-07-27 15:50:00,
2013-07-27 10:57:00,68.4,55.8,30.03,ENE,58,7.0,12.0,64,0.00,,SKC,0.00,VWS V12.07,2013-07-27 15:57:00,
2013-07-27 11:04:00,68.3,55.7,30.03,North,355,2.0,10.0,64,0.00,,SKC,0.00,VWS V12.07,2013-07-27 16:04:00,
2013-07-27 11:10:00,67.6,55.8,30.03,NNW,334,3.0,10.0,66,0.00,,SKC,0.00,VWS V12.07,2013-07-27 16:10:00,
2013-07-27 11:17:00,67.9,54.8,30.03,NW,315,3.0,10.0,63,0.00,,SKC,0.00,VWS V12.07,2013-07-27 16:17:00,
2013-07-27 11:24:00,68.7,55.2,30.03,NW,325,3.0,10.0,62,0.00,,SKC,0.00,VWS V12.07,2013-07-27 16:24:00,
2013-07-27 11:30:00,68.6,53.2,30.03,NW,308,3.0,11.0,58,0.00,,SKC,0.00,VWS V12.07,2013-07-27 16:30:00,
2013-07-27 11:37:00,68.6,54.2,30.03,NNW,333,1.0,8.0,60,0.00,,SKC,0.00,VWS V12.07,2013-07-27 16:37:00,
2013-07-27 11:44:00,68.9,54.5,30.03,NNE,16,4.0,9.0,60,0.00,,SKC,0.00,VWS V12.07,2013-07-27 16:44:00,
2013-07-27 11:50:00,69.3,54.4,30.02,NNE,16,1.0,10.0,59,0.00,,SKC,0.00,VWS V12.07,2013-07-27 16:50:00,
2013-07-27 11:57:00,68.8,52.5,30.03,SSW,201,0.0,13.0,56,0.00,,SKC,0.00,VWS V12.07,2013-07-27 16:57:00,
2013-07-27 12:04:00,68.6,54.6,30.02,NNE,15,1.0,15.0,61,0.00,,SKC,0.00,VWS V12.07,2013-07-27 17:04:00,
2013-07-27 12:10:00,69.4,52.5,30.02,NE,47,8.0,15.0,55,0.00,,SKC,0.00,VWS V12.07,2013-07-27 17:10:00,
2013-07-27 12:17:00,69.7,53.3,30.02,NNE,18,2.0,15.0,56,0.00,,SKC,0.00,VWS V12.07,2013-07-27 17:17:00,
2013-07-27 12:24:00,69.3,52.5,30.02,West,276,4.0,15.0,55,0.00,,SKC,0.00,VWS V12.07,2013-07-27 17:24:00,
2013-07-27 12:30:00,69.2,51.9,30.02,WNW,302,5.0,15.0,54,0.00,,SKC,0.00,VWS V12.07,2013-07-27 17:30:00,
2013-07-27 12:37:00,68.7,51.9,30.02,WNW,302,4.0,9.0,55,0.00,,SKC,0.00,VWS V12.07,2013-07-27 17:37:00,
2013-07-27 12:44:00,69.4,51.0,30.02,NW,316,7.0,13.0,52,0.00,,SKC,0.00,VWS V12.07,2013-07-27 17:44:00,
2013-07-27 12:50:00,69.8,51.4,30.02,NW,319,5.0,13.0,52,0.00,,SKC,0.00,VWS V12.07,2013-07-27 17:50:00,
2013-07-27 12:57:00,69.2,53.3,30.02,NNW,336,2.0,13.0,57,0.00,,SKC,0.00,VWS V12.07,2013-07-27 17:57:00,
2013-07-27 13:04:00,70.1,53.2,30.02,East,89,2.0,11.0,55,0.00,,SKC,0.00,VWS V12.07,2013-07-27 18:04:00,
2013-07-27 13:10:00,70.9,52.9,30.02,NNW,329,4.0,11.0,53,0.00,,SKC,0.00,VWS V12.07,2013-07-27 18:10:00,
2013-07-27 13:17:00,69.9,52.0,30.02,North,4,7.0,11.0,53,0.00,,SKC,0.00,VWS V12.07,2013-07-27 18:17:00,
2013-07-27 13:24:00,69.5,51.1,30.02,NW,322,7.0,11.0,52,0.00,,SKC,0.00,VWS V12.07,2013-07-27 18:24:00,
2013-07-27 13:30:00,70.0,52.6,30.02,North,11,4.0,13.0,54,0.00,,SKC,0.00,VWS V12.07,2013-07-27 18:30:00,
2013-07-27 13:37:00,70.0,51.1,30.01,NW,307,7.0,12.0,51,0.00,,SKC,0.00,VWS V12.07,2013-07-27 18:37:00,
2013-07-27 13:44:00,69.9,52.0,30.01,NNW,327,3.0,13.0,53,0.00,,SKC,0.00,VWS V12.07,2013-07-27 18:44:00,
2013-07-27 13:50:00,70.6,52.1,30.01,NW,314,8.0,14.0,52,0.00,,SKC,0.00,VWS V12.07,2013-07-27 18:50:00,
2013-07-27 13:57:00,70.7,52.8,30.01,NW,320,7.0,15.0,53,0.00,,SKC,0.00,VWS V12.07,2013-07-27 18:57:00,
2013-07-27 14:04:00,70.9,52.9,30.01,NW,320,7.0,10.0,53,0.00,,SKC,0.00,VWS V12.07,2013-07-27 19:04:00,
2013-07-27 14:10:00,70.4,52.0,30.01,West,280,6.0,12.0,52,0.00,,SKC,0.00,VWS V12.07,2013-07-27 19:10:00,
2013-07-27 14:17:00,69.9,52.0,30.01,NW,324,6.0,12.0,53,0.00,,SKC,0.00,VWS V12.07,2013-07-27 19:17:00,
2013-07-27 14:24:00,70.8,52.3,30.00,NW,315,3.0,12.0,52,0.00,,SKC,0.00,VWS V12.07,2013-07-27 19:24:00,
2013-07-27 14:30:00,71.3,51.7,30.00,NNW,336,6.0,12.0,50,0.00,,SKC,0.00,VWS V12.07,2013-07-27 19:30:00,
2013-07-27 14:37:00,70.9,51.9,30.00,WNW,291,5.0,14.0,51,0.00,,SKC,0.00,VWS V12.07,2013-07-27 19:37:00,
2013-07-27 14:44:00,70.2,51.2,30.00,NNW,347,2.0,14.0,51,0.00,,SKC,0.00,VWS V12.07,2013-07-27 19:44:00,
2013-07-27 14:50:00,70.7,52.2,30.00,NNE,19,2.0,14.0,52,0.00,,SKC,0.00,VWS V12.07,2013-07-27 19:50:00,
2013-07-27 14:57:00,70.1,51.7,30.00,North,359,4.0,14.0,52,0.00,,SKC,0.00,VWS V12.07,2013-07-27 19:57:00,
2013-07-27 15:04:00,71.0,51.5,30.00,WNW,291,3.0,9.0,50,0.00,,SKC,0.00,VWS V12.07,2013-07-27 20:04:00,
2013-07-27 15:10:00,71.4,50.7,30.00,NW,304,2.0,9.0,48,0.00,,SKC,0.00,VWS V12.07,2013-07-27 20:10:00,
2013-07-27 15:17:00,71.0,51.5,29.99,NNW,336,5.0,9.0,50,0.00,,SKC,0.00,VWS V12.07,2013-07-27 20:17:00,
2013-07-27 15:24:00,71.3,51.7,29.99,WNW,290,5.0,9.0,50,0.00,,SKC,0.00,VWS V12.07,2013-07-27 20:24:00,
2013-07-27 15:30:00,71.2,50.5,29.99,WSW,257,3.0,9.0,48,0.00,,SKC,0.00,VWS V12.07,2013-07-27 20:30:00,
2013-07-27 15:37:00,71.7,52.6,29.99,NNE,19,7.0,12.0,51,0.00,,SKC,0.00,VWS V12.07,2013-07-27 20:37:00,
2013-07-27 15:44:00,71.3,50.6,29.99,NNW,336,3.0,12.0,48,0.00,,SKC,0.00,VWS V12.07,2013-07-27 20:44:00,
2013-07-27 15:50:00,71.0,53.0,29.99,NW,311,3.0,12.0,53,0.00,,SKC,0.00,VWS V12.07,2013-07-27 20:50:00,
2013-07-27 15:57:00,71.1,52.1,29.99,NW,314,3.0,12.0,51,0.00,,SKC,0.00,VWS V12.07,2013-07-27 20:57:00,
2013-07-27 16:04:00,72.0,51.8,29.99,NNW,330,3.0,8.0,49,0.00,,SKC,0.00,VWS V12.07,2013-07-27 21:04:00,
2013-07-27 16:10:00,72.6,52.4,29.99,NW,326,4.0,8.0,49,0.00,,SKC,0.00,VWS V12.07,2013-07-27 21:10:00,
2013-07-27 16:17:00,72.4,51.6,29.99,NW,326,7.0,11.0,48,0.00,,SKC,0.00,VWS V12.07,2013-07-27 21:17:00,
2013-07-27 16:24:00,72.3,53.7,29.99,WNW,300,6.0,11.0,52,0.00,,SKC,0.00,VWS V12.07,2013-07-27 21:24:00,
2013-07-27 16:30:00,71.8,51.1,29.99,NNW,347,4.0,11.0,48,0.00,,SKC,0.00,VWS V12.07,2013-07-27 21:30:00,
2013-07-27 16:37:00,71.4,51.8,29.99,NW,325,5.0,13.0,50,0.00,,SKC,0.00,VWS V12.07,2013-07-27 21:37:00,
2013-07-27 16:44:00,70.9,51.9,29.99,NNW,336,1.0,13.0,51,0.00,,SKC,0.00,VWS V12.07,2013-07-27 21:44:00,
2013-07-27 16:50:00,71.1,52.1,29.99,NE,36,2.0,13.0,51,0.00,,SKC,0.00,VWS V12.07,2013-07-27 21:50:00,
2013-07-27 16:57:00,72.2,52.5,29.99,North,356,1.0,13.0,50,0.00,,SKC,0.00,VWS V12.07,2013-07-27 21:57:00,
2013-07-27 17:04:00,71.5,51.4,29.99,NW,320,2.0,8.0,49,0.00,,SKC,0.00,VWS V12.07,2013-07-27 22:04:00,
2013-07-27 17:10:00,71.8,51.6,29.99,WNW,300,4.0,8.0,49,0.00,,SKC,0.00,VWS V12.07,2013-07-27 22:10:00,
2013-07-27 17:17:00,72.2,52.0,29.99,North,351,3.0,9.0,49,0.00,,SKC,0.00,VWS V12.07,2013-07-27 22:17:00,
2013-07-27 17:24:00,71.8,51.6,29.98,NW,309,3.0,9.0,49,0.00,,SKC,0.00,VWS V12.07,2013-07-27 22:24:00,
2013-07-27 17:30:00,71.2,51.6,29.98,NW,311,1.0,9.0,50,0.00,,SKC,0.00,VWS V12.07,2013-07-27 22:30:00,
2013-07-27 17:37:00,71.3,52.3,29.98,WNW,292,2.0,7.0,51,0.00,,SKC,0.00,VWS V12.07,2013-07-27 22:37:00,
2013-07-27 17:44:00,71.4,51.8,29.98,NNE,28,4.0,8.0,50,0.00,,SKC,0.00,VWS V12.07,2013-07-27 22:44:00,
2013-07-27 17:50:00,71.9,52.3,29.98,NW,314,3.0,8.0,50,0.00,,SKC,0.00,VWS V12.07,2013-07-27 22:50:00,
2013-07-27 17:57:00,72.1,51.9,29.98,WNW,302,6.0,8.0,49,0.00,,SKC,0.00,VWS V12.07,2013-07-27 22:57:00,
2013-07-27 18:04:00,72.4,52.2,29.98,NW,314,2.0,3.0,49,0.00,,SKC,0.00,VWS V12.07,2013-07-27 23:04:00,
2013-07-27 18:10:00,71.5,51.4,29.98,WNW,302,4.0,7.0,49,0.00,,SKC,0.00,VWS V12.07,2013-07-27 23:10:00,
2013-07-27 18:17:00,71.7,51.5,29.98,NW,308,2.0,7.0,49,0.00,,SKC,0.00,VWS V12.07,2013-07-27 23:17:00,
2013-07-27 18:24:00,72.1,53.0,29.98,West,274,2.0,7.0,51,0.00,,SKC,0.00,VWS V12.07,2013-07-27 23:24:00,
2013-07-27 18:30:00,71.9,52.8,29.98,NNW,346,1.0,7.0,51,0.00,,SKC,0.00,VWS V12.07,2013-07-27 23:30:00,
2013-07-27 18:37:00,71.5,53.0,29.98,NE,40,5.0,6.0,52,0.00,,SKC,0.00,VWS V12.07,2013-07-27 23:37:00,
2013-07-27 18:44:00,71.2,52.2,29.98,NNW,344,0.0,6.0,51,0.00,,SKC,0.00,VWS V12.07,2013-07-27 23:44:00,
2013-07-27 18:50:00,71.7,52.6,29.98,North,9,1.0,6.0,51,0.00,,SKC,0.00,VWS V12.07,2013-07-27 23:50:00,
2013-07-27 18:57:00,71.7,53.2,29.98,NW,305,1.0,6.0,52,0.00,,SKC,0.00,VWS V12.07,2013-07-27 23:57:00,
2013-07-27 19:04:00,71.7,52.6,29.98,NW,318,1.0,3.0,51,0.00,,SKC,0.00,VWS V12.07,2013-07-28 00:04:00,
2013-07-27 19:10:00,71.6,52.0,29.98,ENE,68,0.0,7.0,50,0.00,,SKC,0.00,VWS V12.07,2013-07-28 00:10:00,
2013-07-27 19:17:00,71.5,52.4,29.98,North,357,1.0,7.0,51,0.00,,SKC,0.00,VWS V12.07,2013-07-28 00:17:00,
2013-07-27 19:24:00,71.3,52.8,29.98,NNE,22,3.0,7.0,52,0.00,,SKC,0.00,VWS V12.07,2013-07-28 00:24:00,
2013-07-27 19:30:00,71.1,53.6,29.98,NE,40,0.0,7.0,54,0.00,,SKC,0.00,VWS V12.07,2013-07-28 00:30:00,
2013-07-27 19:37:00,71.3,53.8,29.98,NNW,347,0.0,2.0,54,0.00,,SKC,0.00,VWS V12.07,2013-07-28 00:37:00,
2013-07-27 19:44:00,71.2,54.2,29.98,NNW,330,1.0,2.0,55,0.00,,SKC,0.00,VWS V12.07,2013-07-28 00:44:00,
2013-07-27 19:50:00,70.5,54.1,29.98,NNW,339,1.0,4.0,56,0.00,,SKC,0.00,VWS V12.07,2013-07-28 00:50:00,
2013-07-27 19:57:00,69.5,54.1,29.98,NNE,23,0.0,4.0,58,0.00,,SKC,0.00,VWS V12.07,2013-07-28 00:57:00,
2013-07-27 20:04:00,68.9,53.5,29.98,NNE,19,0.0,1.0,58,0.00,,SKC,0.00,VWS V12.07,2013-07-28 01:04:00,
2013-07-27 20:10:00,67.6,53.2,29.98,NE,39,0.0,3.0,60,0.00,,SKC,0.00,VWS V12.07,2013-07-28 01:10:00,
2013-07-27 20:17:00,66.3,55.0,29.98,NE,36,0.0,3.0,67,0.00,,SKC,0.00,VWS V12.07,2013-07-28 01:17:00,
2013-07-27 20:24:00,65.2,54.0,29.99,NE,36,0.0,3.0,67,0.00,,SKC,0.00,VWS V12.07,2013-07-28 01:24:00,
2013-07-27 20:30:00,64.1,53.3,29.99,NE,36,0.0,3.0,68,0.00,,SKC,0.00,VWS V12.07,2013-07-28 01:30:00,
2013-07-27 20:37:00,63.2,53.3,29.99,NE,36,0.0,0.0,70,0.00,,SKC,0.00,VWS V12.07,2013-07-28 01:37:00,
2013-07-27 20:44:00,62.2,53.5,29.99,NE,36,0.0,0.0,73,0.00,,SKC,0.00,VWS V12.07,2013-07-28 01:44:00,
2013-07-27 20:50:00,61.3,53.7,29.99,NE,36,0.0,0.0,76,0.00,,SKC,0.00,VWS V12.07,2013-07-28 01:50:00,
2013-07-27 20:59:00,60.5,53.3,30.00,NE,36,0.0,0.0,77,0.00,,SKC,0.00,VWS V12.07,2013-07-28 01:59:00,
2013-07-27 21:07:00,60.2,53.0,30.00,NE,40,0.0,1.0,77,0.00,,SKC,0.00,VWS V12.07,2013-07-28 02:07:00,
2013-07-27 21:14:00,60.2,53.0,30.00,North,349,1.0,2.0,77,0.00,,SKC,0.00,VWS V12.07,2013-07-28 02:14:00,
2013-07-27 21:20:00,60.4,52.8,30.00,NE,45,0.0,2.0,76,0.00,,SKC,0.00,VWS V12.07,2013-07-28 02:20:00,
2013-07-27 21:27:00,60.4,52.5,30.01,NE,46,0.0,2.0,75,0.00,,SKC,0.00,VWS V12.07,2013-07-28 02:27:00,
2013-07-27 21:34:00,60.2,52.3,30.01,NE,46,0.0,0.0,75,0.00,,SKC,0.00,VWS V12.07,2013-07-28 02:34:00,
2013-07-27 21:40:00,60.0,52.8,30.01,NE,45,0.0,0.0,77,0.00,,SKC,0.00,VWS V12.07,2013-07-28 02:40:00,
2013-07-27 21:47:00,59.4,52.5,30.01,NE,46,0.0,0.0,78,0.00,,SKC,0.00,VWS V12.07,2013-07-28 02:47:00,
2013-07-27 21:54:00,59.0,52.8,30.02,NE,45,0.0,0.0,80,0.00,,SKC,0.00,VWS V12.07,2013-07-28 02:54:00,
2013-07-27 22:00:00,58.7,52.2,30.01,NE,41,0.0,0.0,79,0.00,,SKC,0.00,VWS V12.07,2013-07-28 03:00:00,
2013-07-27 22:07:00,58.4,52.6,30.02,NE,46,0.0,0.0,81,0.00,,SKC,0.00,VWS V12.07,2013-07-28 03:07:00,
2013-07-27 22:14:00,58.0,52.9,30.02,NE,46,0.0,0.0,83,0.00,,SKC,0.00,VWS V12.07,2013-07-28 03:14:00,
2013-07-27 22:20:00,57.7,52.2,30.02,NE,45,0.0,0.0,82,0.00,,SKC,0.00,VWS V12.07,2013-07-28 03:20:00,
2013-07-27 22:27:00,57.4,52.3,30.02,NE,46,0.0,0.0,83,0.00,,SKC,0.00,VWS V12.07,2013-07-28 03:27:00,
2013-07-27 22:34:00,56.7,51.9,30.02,NE,46,0.0,0.0,84,0.00,,SKC,0.00,VWS V12.07,2013-07-28 03:34:00,
2013-07-27 22:40:00,56.1,51.3,30.02,NE,45,0.0,0.0,84,0.00,,SKC,0.00,VWS V12.07,2013-07-28 03:40:00,
2013-07-27 22:47:00,56.3,51.9,30.02,NE,44,0.0,1.0,85,0.00,,SKC,0.00,VWS V12.07,2013-07-28 03:47:00,
2013-07-27 22:54:00,57.3,51.9,30.02,NE,44,0.0,3.0,82,0.00,,SKC,0.00,VWS V12.07,2013-07-28 03:54:00,
2013-07-27 23:00:00,57.8,52.0,30.02,NNE,33,0.0,3.0,81,0.00,,SKC,0.00,VWS V12.07,2013-07-28 04:00:00,
2013-07-27 23:04:00,57.8,52.0,30.03,NNE,33,0.0,0.0,81,0.00,,SKC,0.00,VWS V12.07,2013-07-28 04:04:00,
2013-07-27 23:07:00,57.6,51.8,30.02,NNE,27,0.0,1.0,81,0.00,,SKC,0.00,VWS V12.07,2013-07-28 04:07:00,
2013-07-27 23:14:00,57.2,51.4,30.02,NNE,27,0.0,1.0,81,0.00,,SKC,0.00,VWS V12.07,2013-07-28 04:14:00,
2013-07-27 23:17:00,57.2,51.4,30.03,NNE,27,0.0,1.0,81,0.00,,SKC,0.00,VWS V12.07,2013-07-28 04:17:00,
2013-07-27 23:20:00,57.1,51.3,30.03,NNE,26,0.0,1.0,81,0.00,,SKC,0.00,VWS V12.07,2013-07-28 04:20:00,
2013-07-27 23:27:00,57.1,51.3,30.02,NNE,27,0.0,1.0,81,0.00,,SKC,0.00,VWS V12.07,2013-07-28 04:27:00,
2013-07-27 23:34:00,56.9,51.1,30.02,NNE,25,0.0,0.0,81,0.00,,SKC,0.00,VWS V12.07,2013-07-28 04:34:00,
2013-07-27 23:40:00,56.9,51.1,30.02,NNE,25,0.0,0.0,81,0.00,,SKC,0.00,VWS V12.07,2013-07-28 04:40:00,
2013-07-27 23:47:00,57.2,51.1,30.02,ESE,103,0.0,1.0,80,0.00,,SKC,0.00,VWS V12.07,2013-07-28 04:47:00,
2013-07-27 23:54:00,57.7,50.9,30.02,ESE,109,0.0,1.0,78,0.00,,SKC,0.00,VWS V12.07,2013-07-28 04:54:00,